Watertown, SD

12:20 PM CDT on July 26, 2017 (GMT -0500)
Watertown Municipal

Weather History for KATY - May, 2014

Change the Weather History Date:

Sunday, May 25, 2014

  Actual Average Record
Temperature  
Mean Temperature 67 °F 59 °F  
Max Temperature 80 °F 70 °F 92 °F (1926)
Min Temperature 54 °F 48 °F 28 °F (1925)
Degree Days  
Heating Degree Days 0 7  
Month to date heating degree days 330 258  
Since 1 July heating degree days 9273 8409  
Cooling Degree Days 2 1  
Month to date cooling degree days 7 14  
Year to date cooling degree days 7 16  
Growing Degree Days 16 (Base 50)    
Moisture  
Dew Point 55 °F    
Average Humidity 60    
Maximum Humidity 73    
Minimum Humidity 47    
Precipitation  
Precipitation 0.04 in 0.09 in 1.05 in (1957)
Month to date precipitation 1.35 2.07  
Year to date precipitation 4.34 6.28  
Sea Level Pressure  
Sea Level Pressure 29.91 in    
Wind  
Wind Speed 9 mph (South)    
Max Wind Speed 16 mph    
Max Gust Speed 21 mph    
Visibility 10 miles    
Events Thunderstorm    
T = Trace of Precipitation, MM = Missing Value Source: NWS Daily Summary

Daily Weather History Graph

Daily Weather History Graph

Search for Another Location

Airport or City:

Trip Planner

Search our weather history database for the weather conditions in past years. The results will help you decide how hot, cold, wet, or windy it might be!

Date:

Astronomy

May. 25, 2014 Rise Set
Actual Time 5:50 AM CDT 9:01 PM CDT
Civil Twilight 5:14 AM CDT 9:37 PM CDT
Nautical Twilight 4:28 AM CDT 10:23 PM CDT
Astronomical Twilight 3:33 AM CDT 11:19 PM CDT
Moon 4:04 AM CDT (5/25) 5:55 PM CDT (5/25)
Length of Visible Light 16h 22m
Length of Day
15h 11m
Waning Crescent, 10% of the Moon is Illuminated
May 25
Waning Crescent
May 28
New
Jun 5
First Quarter
Jun 12
Full
Jun 19
Last Quarter

Hourly Weather History & Observations

Time (CDT) Temp. Dew Point Humidity Pressure Visibility Wind Dir Wind Speed Gust Speed Precip Events Conditions
1:53 AM 57.9 °F 42.1 °F 56% 29.97 in 10.0 mi SSE 5.8 mph - N/A   Clear
2:53 AM 55.9 °F 43.0 °F 62% 29.98 in 10.0 mi SSE 5.8 mph - N/A   Clear
4:53 AM 55.9 °F 43.0 °F 62% 29.95 in 10.0 mi SSE 8.1 mph - N/A   Clear
5:53 AM 54.0 °F 44.1 °F 69% 29.96 in 10.0 mi SSE 6.9 mph - N/A   Clear
7:53 AM 60.1 °F 52.0 °F 75% 29.95 in 10.0 mi SSE 12.7 mph - N/A   Clear
8:53 AM 66.0 °F 57.0 °F 73% 29.94 in 10.0 mi South 13.8 mph - N/A   Clear
10:53 AM 71.1 °F 60.1 °F 68% 29.95 in 10.0 mi South 12.7 mph - N/A   Mostly Cloudy
11:49 AM 71.6 °F 59.0 °F 64% 29.96 in 10.0 mi South 12.7 mph - N/A   Scattered Clouds
11:53 AM 72.0 °F 60.1 °F 66% 29.94 in 10.0 mi South 11.5 mph - N/A   Scattered Clouds
12:53 PM 71.1 °F 59.0 °F 66% 29.93 in 10.0 mi South 11.5 mph - N/A   Clear
1:53 PM 73.0 °F 59.0 °F 61% 29.92 in 10.0 mi South 12.7 mph - N/A   Clear
2:53 PM 75.0 °F 57.9 °F 55% 29.91 in 10.0 mi South 12.7 mph - N/A   Clear
3:53 PM 77.0 °F 55.9 °F 48% 29.87 in 10.0 mi SW 13.8 mph - N/A   Clear
4:53 PM 79.0 °F 57.0 °F 47% 29.84 in 10.0 mi SSW 11.5 mph - N/A   Clear
5:53 PM 79.0 °F 57.9 °F 48% 29.84 in 10.0 mi SW 6.9 mph - N/A   Partly Cloudy
6:53 PM 78.1 °F 57.9 °F 50% 29.83 in 10.0 mi SW 9.2 mph - N/A   Partly Cloudy
7:53 PM 75.9 °F 61.0 °F 60% 29.85 in 10.0 mi SW 3.5 mph - N/A   Clear
8:53 PM 72.0 °F 60.1 °F 66% 29.87 in 10.0 mi South 3.5 mph - N/A   Mostly Cloudy
9:53 PM 72.0 °F 59.0 °F 64% 29.86 in 10.0 mi Calm Calm - N/A   Scattered Clouds
10:53 PM 69.1 °F 57.9 °F 68% 29.88 in 10.0 mi SSE 4.6 mph - N/A   Scattered Clouds
11:35 PM 68.0 °F 57.9 °F 70% 29.90 in 10.0 mi SSE 5.8 mph - N/A Thunderstorm Scattered Clouds
11:53 PM 70.0 °F 57.9 °F 65% 29.88 in 10.0 mi South 5.8 mph - N/A Thunderstorm Mostly Cloudy